Flag for USA

Past Weather in Boise, Idaho, USA — Yesterday and Last 2 Weeks

Now
72 °F

Sunny.


Feels Like: 77 °F
Forecast: 93 / 62 °F
Wind: 8 mph from Southeast

Location: Boise Air Terminal

Current Time: Jul 16, 2020 at 10:10:56 am

Latest Report: Jul 16, 2020 at 8:53 am


Visibility: 10 mi

Pressure: 29.92 "Hg (27.21 "Hg at 822m altitude)

Humidity: 34%

Dew Point: 42 °F

Location of BoiseLocation

Past Weather in Boise — Graph

°F

Boise Temperature Yesterday

Maximum temperature yesterday: 89 °F (at 6:53 pm)
Minimum temperature yesterday: 54 °F (at 5:53 am)
Average temperature yesterday: 73 °F

High & Low Weather Summary for the Past Weeks

 TemperatureHumidityPressure
High100 °F (Jul 11, 4:53 pm)77% (Jul 2, 4:53 am)30.10 "Hg (Jul 2, 4:53 am)
Low50 °F (Jul 2, 4:53 am)8% (Jul 15, 4:53 pm)29.59 "Hg (Jul 6, 11:53 pm)
Average73 °F34%29.90 "Hg
* Reported Jul 1 8:53 am — Jul 16 8:53 am, Boise. Weather by CustomWeather, © 2020

Note: Actual official high and low records may vary slightly from our data, if they occured in-between our weather recording intervals... More about our weather records

Boise Weather History for the Previous 24 Hours

Scroll right to see more
 ConditionsComfort  
Time TempWeatherWind HumidityBarometerVisibility
8:53 am
Thu, Jul 16
72 °FSunny.8 mph34%29.92 "Hg10 mi
7:53 am66 °FSunny.8 mph40%29.92 "Hg8 mi
6:53 am63 °FClear.3 mph48%29.91 "Hg10 mi
5:53 am62 °FClear.7 mph44%29.89 "Hg10 mi
4:53 am61 °FClear.3 mph54%29.88 "Hg10 mi
3:53 am63 °FClear.3 mph47%29.88 "Hg10 mi
2:53 am65 °FClear.8 mph36%29.88 "Hg10 mi
1:53 am65 °FClear.3 mph37%29.88 "Hg10 mi
12:53 am70 °FClear.3 mph30%29.88 "Hg10 mi
11:53 pm
Wed, Jul 15
72 °FClear.No wind27%29.88 "Hg10 mi
10:53 pm77 °FClear.No wind23%29.88 "Hg10 mi
9:53 pm81 °FSunny.3 mph18%29.88 "Hg10 mi
8:53 pm84 °FSunny.8 mph14%29.88 "Hg10 mi
7:53 pm87 °FSunny.12 mph12%29.89 "Hg10 mi
6:53 pm89 °FSunny.14 mph11%29.90 "Hg10 mi
5:53 pm88 °FSunny.10 mph12%29.92 "Hg10 mi
4:53 pm88 °FSunny.13 mph8%29.93 "Hg10 mi
3:53 pm87 °FSunny.15 mph15%29.95 "Hg9 mi
2:53 pm85 °FSunny.9 mph14%29.97 "Hg10 mi
1:53 pm83 °FSunny.8 mph20%29.99 "Hg10 mi
12:53 pm80 °FSunny.9 mph22%30.01 "Hg10 mi
11:53 am77 °FSunny.13 mph24%30.01 "Hg9 mi
10:53 am72 °FSunny.7 mph28%30.03 "Hg10 mi
Weather by CustomWeather, © 2020

See weather overview